Location: Rounton
(54.4000°N, 1.3500°W)
Time: 08:17:23
(UTC+01:00)

FENGYUN 1C DEB - Visible Passes

Search period start: 26 June 2022 00:00
Search period end: 06 July 2022 00:00
Orbit: 735 x 862 km, 99.3° (Epoch: 20 June)

Date Brightness Start Highest point End Pass type
(mag) Time Alt. Az. Time Alt. Az. Time Alt. Az.
26 Jun ? 23:18:59 10° SSW 23:23:21 29° W 23:27:42 10° NW visible
27 Jun ? 22:51:20 10° S 22:56:11 47° W 23:00:58 10° NNW visible
29 Jun ? 00:07:06 10° WSW 00:09:33 14° W 00:11:59 10° WNW visible
29 Jun ? 23:38:21 10° SW 23:42:11 22° W 23:46:00 10° NW visible
30 Jun ? 23:10:23 10° SSW 23:14:56 34° W 23:19:26 10° NNW visible
01 Jul ? 22:42:53 10° S 22:47:46 55° WSW 22:52:38 10° NNW visible
02 Jul ? 23:58:01 10° SW 00:01:03 16° W 00:04:03 10° NW visible
03 Jul ? 23:29:37 10° SSW 23:33:43 25° W 23:37:48 10° NW visible
04 Jul ? 23:01:49 10° S 23:06:29 40° W 23:11:08 10° NNW visible
05 Jul ? 22:34:26 10° S 22:39:21 66° WSW 22:44:16 10° NNW visible
